�N����,����,�g�[���i���ԁj���x,�g�[�����x,��g�[���i���ցj���x,����
 2004/08/01, 0:00,28,68,26.8,-4.6
 2004/08/01, 0:15,28,69,26.8,-4.6
 2004/08/01, 0:30,28,69,26.8,-4.6
 2004/08/01, 0:45,27.8,69,26.8,-4.5
 2004/08/01, 1:00,27.8,69,26.8,-4.6
 2004/08/01, 1:15,27.7,69,26.8,-4.8
 2004/08/01, 1:30,27.7,69,26.8,-5
 2004/08/01, 1:45,27.6,69,26.7,-4.9
 2004/08/01, 2:00,27.5,69,26.7,-4.8
 2004/08/01, 2:15,27.6,69,26.7,-4.7
 2004/08/01, 2:30,27.5,70,26.7,-4.5
 2004/08/01, 2:45,27.5,70,26.6,-4.4
 2004/08/01, 3:00,27.5,70,26.6,-4.7
 2004/08/01, 3:15,27.5,70,26.6,-4.7
 2004/08/01, 3:30,27.4,70,26.6,-4.6
 2004/08/01, 3:45,27.4,70,26.6,-4.5
 2004/08/01, 4:00,27.4,70,26.6,-4.5
 2004/08/01, 4:15,27.4,70,26.6,-5
 2004/08/01, 4:30,27.3,70,26.6,-4.8
 2004/08/01, 4:45,27.4,70,26.6,-4.9
 2004/08/01, 5:00,27.4,70,26.6,-4.9
 2004/08/01, 5:15,27.4,70,26.6,-4.8
 2004/08/01, 5:30,27.3,70,26.6,-4.8
 2004/08/01, 5:45,27.3,71,26.7,-4.6
 2004/08/01, 6:00,27.3,71,26.8,-4.7
 2004/08/01, 6:15,27.4,71,27.9,-4.7
 2004/08/01, 6:30,27.5,71,29,-4.8
 2004/08/01, 6:45,27.6,72,29.5,-4.7
 2004/08/01, 7:00,27.7,71,29.6,-4.6
 2004/08/01, 7:15,27.9,70,30.1,-4.4
 2004/08/01, 7:30,28.1,69,30.6,-4.3
 2004/08/01, 7:45,28.4,70,31.1,-4.2
 2004/08/01, 8:00,28.6,68,31.1,-4.1
 2004/08/01, 8:15,28.7,66,31,-4.1
 2004/08/01, 8:30,28.8,65,30.3,-3.6
 2004/08/01, 8:45,29.1,65,30.6,-3.5
 2004/08/01, 9:00,29.4,64,30.9,-3.4
 2004/08/01, 9:15,29.6,63,30.9,-3.6
 2004/08/01, 9:30,29.7,62,30.6,-3.3
 2004/08/01, 9:45,29.7,61,30.4,-3.5
 2004/08/01,10:00,29.7,63,30.2,-3.8
 2004/08/01,10:15,29.6,64,30.2,-3.7
 2004/08/01,10:30,29.7,62,30.1,-3.6
 2004/08/01,10:45,29.7,62,30.1,-3.7
 2004/08/01,11:00,30,61,30.4,-3.7
 2004/08/01,11:15,30.3,61,30.6,-3.4
 2004/08/01,11:30,30.4,61,30.6,-3.5
 2004/08/01,11:45,30.4,59,30.5,-3.4
 2004/08/01,12:00,30.3,61,30.4,-3.3
 2004/08/01,12:15,30.3,60,30.4,-3.5
 2004/08/01,12:30,30.2,61,30.4,-3.4
 2004/08/01,12:45,30.1,60,30.3,-3.5
 2004/08/01,13:00,30.1,60,30.1,-3.5
 2004/08/01,13:15,30.2,59,30.2,-3.6
 2004/08/01,13:30,30.3,59,30.2,-3.6
 2004/08/01,13:45,30.5,59,30.4,-3.4
 2004/08/01,14:00,30.4,59,30.3,-3.9
 2004/08/01,14:15,30.3,59,30.2,-3.6
 2004/08/01,14:30,30.1,59,30,-3.3
 2004/08/01,14:45,30.1,60,29.9,-3.4
 2004/08/01,15:00,30.1,60,29.9,-3.4
 2004/08/01,15:15,30,60,29.9,-3.5
 2004/08/01,15:30,29.9,60,29.9,-3.4
 2004/08/01,15:45,29.9,60,29.7,-3.6
 2004/08/01,16:00,29.7,61,29.6,-3.3
 2004/08/01,16:15,29.7,61,29.4,-3.1
 2004/08/01,16:30,29.6,61,29.3,-3.3
 2004/08/01,16:45,29.6,61,29.4,-3.1
 2004/08/01,17:00,29.5,61,29.3,-2.9
 2004/08/01,17:15,29.4,63,29,-3.1
 2004/08/01,17:30,29.3,63,28.9,-2.9
 2004/08/01,17:45,29.1,63,28.7,-3.1
 2004/08/01,18:00,29,63,28.6,-2.9
 2004/08/01,18:15,29,64,28.6,-2.9
 2004/08/01,18:30,29,64,28.3,-2.5
 2004/08/01,18:45,29,64,28.4,-2.5
 2004/08/01,19:00,28.9,64,28.3,-2.7
 2004/08/01,19:15,28.7,63,28.1,-2.7
 2004/08/01,19:30,28.8,63,28,-2.4
 2004/08/01,19:45,28.7,64,27.9,-2.4
 2004/08/01,20:00,28.7,64,27.9,-2.4
 2004/08/01,20:15,28.7,64,27.9,-2.3
 2004/08/01,20:30,28.6,64,27.8,-2.3
 2004/08/01,20:45,28.6,65,27.7,-2.1
 2004/08/01,21:00,28.6,64,27.7,-2.2
 2004/08/01,21:15,28.4,64,27.7,-2.3
 2004/08/01,21:30,28.5,64,27.6,-2.3
 2004/08/01,21:45,28.4,63,27.5,-2.5
 2004/08/01,22:00,28.4,63,27.5,-2.4
 2004/08/01,22:15,28.5,63,27.4,-2.3
 2004/08/01,22:30,28.4,63,27.5,-2.4
 2004/08/01,22:45,28.4,63,27.3,25.7
 2004/08/01,23:00,28.3,63,27.2,25
 2004/08/01,23:15,28.4,63,27.2,21.9
 2004/08/01,23:30,28.4,62,27.2,5.7
 2004/08/01,23:45,28.3,62,27.2,2.4
 2004/08/02, 0:00,28.2,63,27.1,5.6
 2004/08/02, 0:15,28.2,63,27,9.4
 2004/08/02, 0:30,28.1,63,26.9,-1.2
 2004/08/02, 0:45,28,63,27,9.4
 2004/08/02, 1:00,27.9,63,27,0.8
 2004/08/02, 1:15,27.8,63,26.9,2.5
 2004/08/02, 1:30,27.7,63,26.8,-4.6
 2004/08/02, 1:45,27.7,63,26.7,-5.3
 2004/08/02, 2:00,27.6,63,26.7,14.5
 2004/08/02, 2:15,27.6,63,26.5,16.8
 2004/08/02, 2:30,27.5,63,26.6,21.5
 2004/08/02, 2:45,27.5,63,26.6,15.9
 2004/08/02, 3:00,27.4,63,26.5,9.9
 2004/08/02, 3:15,27.4,63,26.6,23
 2004/08/02, 3:30,27.4,63,26.3,22.5
 2004/08/02, 3:45,27.3,63,26.3,22
 2004/08/02, 4:00,27.3,63,26.2,18.5
 2004/08/02, 4:15,27.2,63,26.2,21.4
 2004/08/02, 4:30,27.2,63,26.1,22.4
 2004/08/02, 4:45,27.2,63,26.1,22.6
 2004/08/02, 5:00,27.1,63,25.7,13.3
 2004/08/02, 5:15,27.1,63,25.7,13.2
 2004/08/02, 5:30,27,64,25.9,23.7
 2004/08/02, 5:45,26.9,64,25.8,24.7
 2004/08/02, 6:00,26.8,64,26.1,24.9
 2004/08/02, 6:15,26.8,65,27.5,25
 2004/08/02, 6:30,26.8,65,28.3,25.1
 2004/08/02, 6:45,26.8,63,28.9,25.2
 2004/08/02, 7:00,27,66,29.3,25.3
 2004/08/02, 7:15,27.2,65,29.6,25.4
 2004/08/02, 7:30,27.4,63,29.9,25.5
 2004/08/02, 7:45,27.6,62,30.3,25.6
 2004/08/02, 8:00,27.7,59,30.3,25.7
 2004/08/02, 8:15,27.9,58,30.7,25.7
 2004/08/02, 8:30,28.1,57,30.8,25.8
 2004/08/02, 8:45,28.5,56,30.9,25.9
 2004/08/02, 9:00,28.8,55,30.9,26
 2004/08/02, 9:15,29,54,31,26.1
 2004/08/02, 9:30,29.3,53,30.6,26.2
 2004/08/02, 9:45,29.4,52,30.1,26.3
 2004/08/02,10:00,29.5,51,30,26.4
 2004/08/02,10:15,29.7,50,29.8,26.5
 2004/08/02,10:30,29.8,50,29.9,26.5
 2004/08/02,10:45,30.2,49,29.9,26.6
 2004/08/02,11:00,30.5,48,30,26.7
 2004/08/02,11:15,30.6,48,30,26.8
 2004/08/02,11:30,30.7,47,30.2,26.9
 2004/08/02,11:45,31.3,46,30.6,27
 2004/08/02,12:00,31,46,30.4,27.1
 2004/08/02,12:15,31,45,30.5,27.2
 2004/08/02,12:30,31.1,45,30.6,27.3
 2004/08/02,12:45,31.2,44,30.6,27.4
 2004/08/02,13:00,31.4,45,30.9,27.5
 2004/08/02,13:15,31.4,44,30.8,27.5
 2004/08/02,13:30,31.5,44,30.8,27.6
 2004/08/02,13:45,31.4,44,31,27.7
 2004/08/02,14:00,31.3,46,30.7,27.7
 2004/08/02,14:15,31.2,46,30.5,27.8
 2004/08/02,14:30,31.1,48,30.5,27.8
 2004/08/02,14:45,31.1,49,30.5,27.9
 2004/08/02,15:00,31.2,49,30.6,27.9
 2004/08/02,15:15,31.2,48,30.6,28
 2004/08/02,15:30,31.2,48,30.7,28
 2004/08/02,15:45,31.1,47,30.6,28
 2004/08/02,16:00,31.2,46,30.7,28
 2004/08/02,16:15,31.2,45,31.1,28.1
 2004/08/02,16:30,31,46,30.7,28
 2004/08/02,16:45,30.8,47,30.6,28
 2004/08/02,17:00,30.6,48,30.2,27.9
 2004/08/02,17:15,30.5,48,30.2,27.9
 2004/08/02,17:30,30.4,48,30.1,27.9
 2004/08/02,17:45,30.3,48,29.9,27.9
 2004/08/02,18:00,30.1,48,29.9,27.8
 2004/08/02,18:15,30,49,29.6,27.7
 2004/08/02,18:30,29.8,50,29.5,27.7
 2004/08/02,18:45,29.9,51,29.3,27.6
 2004/08/02,19:00,29.7,50,29.1,27.5
 2004/08/02,19:15,29.6,50,29,27.5
 2004/08/02,19:30,29.5,51,28.8,27.4
 2004/08/02,19:45,29.4,51,28.7,27.3
 2004/08/02,20:00,29.2,52,28.5,27.2
 2004/08/02,20:15,29.2,53,28.3,27.2
 2004/08/02,20:30,28.9,53,28.2,27.1
 2004/08/02,20:45,28.8,54,28,27
 2004/08/02,21:00,28.7,54,27.9,26.9
 2004/08/02,21:15,28.5,55,27.7,26.8
 2004/08/02,21:30,28.4,57,27.5,26.7
 2004/08/02,21:45,28.2,58,27.2,26.6
 2004/08/02,22:00,28.1,58,27.1,26.5
 2004/08/02,22:15,28.1,58,27,26.4
 2004/08/02,22:30,28.1,58,26.7,26.3
 2004/08/02,22:45,28.1,58,26.3,26.2
 2004/08/02,23:00,28,59,26.2,26.1
 2004/08/02,23:15,27.7,59,26.3,25.9
 2004/08/02,23:30,27.7,59,26,25.8
 2004/08/02,23:45,27.6,59,25.9,25.6
 2004/08/03, 0:00,27.6,60,25.6,25.7
 2004/08/03, 0:15,27.4,59,25.6,25.5
 2004/08/03, 0:30,27.2,60,25.6,25.3
 2004/08/03, 0:45,27.2,60,25.3,25.4
 2004/08/03, 1:00,27.2,60,25.1,25.3
 2004/08/03, 1:15,27.1,60,25.1,25.1
 2004/08/03, 1:30,26.9,61,25.1,25.2
 2004/08/03, 1:45,26.9,61,24.9,25
 2004/08/03, 2:00,26.8,61,24.7,25
 2004/08/03, 2:15,26.8,61,24.7,24.8
 2004/08/03, 2:30,26.7,61,24.5,24.7
 2004/08/03, 2:45,26.6,61,24.4,24.7
 2004/08/03, 3:00,26.5,62,24.4,24.6
 2004/08/03, 3:15,26.4,62,24.1,24.6
 2004/08/03, 3:30,26.3,62,24.1,24.5
 2004/08/03, 3:45,26.2,63,23.9,24.4
 2004/08/03, 4:00,26.1,63,23.9,24.3
 2004/08/03, 4:15,26,64,23.8,24.3
 2004/08/03, 4:30,26,64,23.7,24.2
 2004/08/03, 4:45,25.9,64,23.6,24.2
 2004/08/03, 5:00,25.8,64,23.7,24.1
 2004/08/03, 5:15,25.7,64,23.5,24.1
 2004/08/03, 5:30,25.7,64,23.5,24
 2004/08/03, 5:45,25.6,64,23.5,23.9
 2004/08/03, 6:00,25.6,65,23.7,24
 2004/08/03, 6:15,25.6,65,25.6,24.1
 2004/08/03, 6:30,25.7,66,26.8,24.1
 2004/08/03, 6:45,25.8,67,27.7,24.2
 2004/08/03, 7:00,25.9,65,28.2,24.2
 2004/08/03, 7:15,26,64,28.6,24.3
 2004/08/03, 7:30,26.1,64,28.9,24.3
 2004/08/03, 7:45,26.3,64,29.3,24.4
 2004/08/03, 8:00,26.6,64,29.5,24.5
 2004/08/03, 8:15,26.9,64,29.8,24.6
 2004/08/03, 8:30,27.4,63,30,24.6
 2004/08/03, 8:45,27.8,61,30.1,24.8
 2004/08/03, 9:00,28.2,61,29.9,24.8
 2004/08/03, 9:15,28.1,60,29.1,24.9
 2004/08/03, 9:30,28.1,61,28.6,25
 2004/08/03, 9:45,28.1,61,28.4,25.1
 2004/08/03,10:00,28.2,60,28.6,25.2
 2004/08/03,10:15,28.3,61,28.6,25.3
 2004/08/03,10:30,28.4,59,28.7,25.5
 2004/08/03,10:45,28.6,58,28.8,25.6
 2004/08/03,11:00,28.7,57,29.1,25.7
 2004/08/03,11:15,28.7,57,29,25.7
 2004/08/03,11:30,28.7,58,29,25.8
 2004/08/03,11:45,28.9,59,29.1,25.9
 2004/08/03,12:00,29,58,29.1,26
 2004/08/03,12:15,29.1,58,29.2,26.1
 2004/08/03,12:30,29.3,56,29.2,26.2
 2004/08/03,12:45,29.4,56,29.4,26.3
 2004/08/03,13:00,29.7,54,29.7,26.3
 2004/08/03,13:15,29.7,53,29.9,26.5
 2004/08/03,13:30,29.8,51,29.9,26.5
 2004/08/03,13:45,30,52,30.1,26.6
 2004/08/03,14:00,29.7,53,29.9,26.7
 2004/08/03,14:15,29.5,54,29.6,26.7
 2004/08/03,14:30,29.4,55,29.4,26.7
 2004/08/03,14:45,29.2,56,29.1,26.7
 2004/08/03,15:00,29,57,28.9,26.7
 2004/08/03,15:15,29,60,28.6,26.7
 2004/08/03,15:30,28.9,61,28.3,26.7
 2004/08/03,15:45,28.8,60,28.3,26.6
 2004/08/03,16:00,28.7,61,28,26.5
 2004/08/03,16:15,28.6,61,27.8,26.5
 2004/08/03,16:30,28.5,62,27.6,26.4
 2004/08/03,16:45,28.4,62,27.7,26.4
 2004/08/03,17:00,28.3,63,27.5,26.3
 2004/08/03,17:15,28.2,63,27.4,26.3
 2004/08/03,17:30,28.2,64,27.3,26.3
 2004/08/03,17:45,28.2,64,27.2,26.3
 2004/08/03,18:00,28.1,65,27.2,26.2
 2004/08/03,18:15,28,65,27,26.2
 2004/08/03,18:30,28,65,27,26.1
 2004/08/03,18:45,28,65,26.9,26.1
 2004/08/03,19:00,28.1,65,26.8,26.1
 2004/08/03,19:15,28.1,65,26.8,26
 2004/08/03,19:30,28.1,66,26.7,26
 2004/08/03,19:45,28.1,68,26.6,26
 2004/08/03,20:00,28.1,71,26.3,25.9
 2004/08/03,20:15,28,72,26.2,25.9
 2004/08/03,20:30,27.9,73,26,25.9
 2004/08/03,20:45,27.9,73,25.9,25.8
 2004/08/03,21:00,27.8,73,25.8,25.8
 2004/08/03,21:15,27.8,74,25.9,25.8
 2004/08/03,21:30,27.8,75,26,25.7
 2004/08/03,21:45,27.7,75,26,25.7
 2004/08/03,22:00,27.7,74,25.9,25.6
 2004/08/03,22:15,28.1,74,25.8,25.6
 2004/08/03,22:30,27.9,74,25.8,25.6
 2004/08/03,22:45,27.8,75,25.8,25.5
 2004/08/03,23:00,27.9,76,25.8,25.4
 2004/08/03,23:15,27.9,75,25.9,25.4
 2004/08/03,23:30,27.8,78,25.9,25.4
 2004/08/03,23:45,27.7,79,25.8,25.4
 2004/08/04, 0:00,27.7,77,25.8,25.6
 2004/08/04, 0:15,27.7,76,25.9,25.6
 2004/08/04, 0:30,27.7,76,25.9,25.6
 2004/08/04, 0:45,27.6,76,25.8,25.6
 2004/08/04, 1:00,27.5,76,25.7,25.6
 2004/08/04, 1:15,27.5,75,25.7,25.6
 2004/08/04, 1:30,27.4,74,25.8,25.6
 2004/08/04, 1:45,27.3,74,25.6,25.6
 2004/08/04, 2:00,27.2,74,25.6,25.5
 2004/08/04, 2:15,27.2,73,25.7,25.5
 2004/08/04, 2:30,27.1,73,25.5,25.5
 2004/08/04, 2:45,27.1,73,25.6,25.4
 2004/08/04, 3:00,27.1,73,25.5,25.4
 2004/08/04, 3:15,27,74,25.5,25.3
 2004/08/04, 3:30,27,74,25.5,25.3
 2004/08/04, 3:45,27,74,25.6,25.3
 2004/08/04, 4:00,26.9,74,25.7,25.3
 2004/08/04, 4:15,26.9,75,25.5,25.2
 2004/08/04, 4:30,26.8,76,25.4,25.2
 2004/08/04, 4:45,26.8,76,25.3,25.1
 2004/08/04, 5:00,26.8,76,25.4,25.1
 2004/08/04, 5:15,26.8,76,25.4,25.1
 2004/08/04, 5:30,26.7,75,25.4,25.1
 2004/08/04, 5:45,26.7,74,25.4,25
 2004/08/04, 6:00,26.8,74,25.5,25.1
 2004/08/04, 6:15,26.8,74,25.9,25.1
 2004/08/04, 6:30,26.8,74,26,25.1
 2004/08/04, 6:45,26.8,74,25.9,25.2
 2004/08/04, 7:00,26.9,73,26,25.2
 2004/08/04, 7:15,26.9,74,26.1,25.2
 2004/08/04, 7:30,27.1,73,26.6,25.2
 2004/08/04, 7:45,27.1,73,26.7,25.2
 2004/08/04, 8:00,27.1,73,26.7,25.2
 2004/08/04, 8:15,27.2,73,26.7,25.2
 2004/08/04, 8:30,27.3,72,26.9,25.3
 2004/08/04, 8:45,27.4,72,26.9,25.3
 2004/08/04, 9:00,27.4,71,27,25.4
 2004/08/04, 9:15,27.6,70,27.3,25.4
 2004/08/04, 9:30,27.7,70,27.4,25.5
 2004/08/04, 9:45,28,67,27.9,25.5
 2004/08/04,10:00,28.2,65,28,25.6
 2004/08/04,10:15,28.3,64,28,25.6
 2004/08/04,10:30,28.3,62,28.1,25.7
 2004/08/04,10:45,28.3,62,28.2,25.7
 2004/08/04,11:00,28.4,60,28.4,25.8
 2004/08/04,11:15,28.4,61,28.2,25.9
 2004/08/04,11:30,28.4,63,28.2,25.8
 2004/08/04,11:45,28.4,62,28.1,25.8
 2004/08/04,12:00,28.4,63,28.1,25.9
 2004/08/04,12:15,28.4,64,28.1,25.9
 2004/08/04,12:30,28.4,64,28.1,25.9
 2004/08/04,12:45,28.5,64,28,25.9
 2004/08/04,13:00,28.5,63,28,25.9
 2004/08/04,13:15,28.6,62,28,26
 2004/08/04,13:30,28.6,62,28.1,26
 2004/08/04,13:45,28.6,62,28.1,26
 2004/08/04,14:00,28.6,62,28.1,26
 2004/08/04,14:15,28.7,62,28.1,26.1
 2004/08/04,14:30,28.7,62,28.2,26.1
 2004/08/04,14:45,28.8,62,28.2,26.1
 2004/08/04,15:00,28.8,60,28.2,26.1
 2004/08/04,15:15,28.7,59,28.2,26.2
 2004/08/04,15:30,28.7,58,28.1,26.2
 2004/08/04,15:45,28.7,57,28.2,26.3
 2004/08/04,16:00,28.7,57,28.3,26.2
 2004/08/04,16:15,28.7,58,28.2,26.2
 2004/08/04,16:30,28.5,59,27.9,26.2
 2004/08/04,16:45,28.6,60,27.9,26.2
 2004/08/04,17:00,28.5,60,27.9,26.3
 2004/08/04,17:15,28.3,62,27.6,26.2
 2004/08/04,17:30,28.1,63,27.3,26.1
 2004/08/04,17:45,28,66,26.9,26
 2004/08/04,18:00,27.9,67,26.6,26
 2004/08/04,18:15,27.9,68,26.6,25.9
 2004/08/04,18:30,27.8,67,26.5,25.8
 2004/08/04,18:45,27.8,68,26.5,25.8
 2004/08/04,19:00,27.7,69,26.4,25.8
 2004/08/04,19:15,27.6,72,26.2,25.8
 2004/08/04,19:30,27.5,74,25.9,25.7
 2004/08/04,19:45,27.5,74,25.8,25.6
 2004/08/04,20:00,27.5,74,25.7,25.6
 2004/08/04,20:15,27.4,75,25.7,25.5
 2004/08/04,20:30,27.3,75,25.5,25.3
 2004/08/04,20:45,27.2,76,25.5,25.3
 2004/08/04,21:00,27.2,77,25.5,25.3
 2004/08/04,21:15,27.1,78,25.5,25.2
 2004/08/04,21:30,27.2,78,25.6,25.2
 2004/08/04,21:45,27.2,79,25.7,25.2
 2004/08/04,22:00,27.2,79,25.6,25.2
 2004/08/04,22:15,27.2,79,25.8,25.2
 2004/08/04,22:30,27.2,79,25.9,25.2
 2004/08/04,22:45,27.3,79,26,25.2
 2004/08/04,23:00,27.2,78,26.1,25.2
 2004/08/04,23:15,27.3,78,26.2,25.2
 2004/08/04,23:30,27.3,78,26.3,25.3
 2004/08/04,23:45,27.3,77,26.5,25.3
 2004/08/05, 0:00,27.3,77,26.5,25.4
 2004/08/05, 0:15,27.2,78,26.5,25.4
 2004/08/05, 0:30,27.2,77,26.5,25.5
 2004/08/05, 0:45,27.2,77,26.5,25.5
 2004/08/05, 1:00,27.2,77,26.5,25.5
 2004/08/05, 1:15,27.2,77,26.4,25.6
 2004/08/05, 1:30,27.2,77,26.6,25.6
 2004/08/05, 1:45,27.2,77,26.6,25.6
 2004/08/05, 2:00,27.2,78,26.6,25.6
 2004/08/05, 2:15,27.2,78,26.6,25.6
 2004/08/05, 2:30,27.1,79,26.5,25.6
 2004/08/05, 2:45,27.1,79,26.5,25.6
 2004/08/05, 3:00,27.1,79,26.5,25.5
 2004/08/05, 3:15,27.1,80,26.4,25.5
 2004/08/05, 3:30,27.1,80,26.5,25.5
 2004/08/05, 3:45,27.1,79,26.5,25.5
 2004/08/05, 4:00,27,80,26.4,25.5
 2004/08/05, 4:15,27,80,26.3,25.5
 2004/08/05, 4:30,27,80,26.4,25.4
 2004/08/05, 4:45,27,80,26.4,25.4
 2004/08/05, 5:00,27,80,26.5,25.4
 2004/08/05, 5:15,27,79,26.4,25.4
 2004/08/05, 5:30,27,79,26.4,25.4
 2004/08/05, 5:45,27,79,26.4,25.4
 2004/08/05, 6:00,27,80,26.3,25.4
 2004/08/05, 6:15,27,81,26.3,25.4
 2004/08/05, 6:30,27,81,26.3,25.4
 2004/08/05, 6:45,27,82,26.2,25.4
 2004/08/05, 7:00,27,83,26.2,25.4
 2004/08/05, 7:15,27,83,26.3,25.4
 2004/08/05, 7:30,27,84,26.4,25.4
 2004/08/05, 7:45,27.1,85,26.4,25.4
 2004/08/05, 8:00,27,86,26.4,25.5
 2004/08/05, 8:15,27.1,85,26.5,25.5
 2004/08/05, 8:30,27,83,26.4,25.5
 2004/08/05, 8:45,26.8,83,26.3,25.5
 2004/08/05, 9:00,26.9,84,26.2,25.5
 2004/08/05, 9:15,26.8,84,26.2,25.5
 2004/08/05, 9:30,26.8,84,26.3,25.4
 2004/08/05, 9:45,26.7,83,26.3,25.4
 2004/08/05,10:00,26.7,84,26.3,25.4
 2004/08/05,10:15,26.8,84,26.2,25.4
 2004/08/05,10:30,26.9,84,26.2,25.4
 2004/08/05,10:45,26.9,85,26.2,25.3
 2004/08/05,11:00,26.9,85,26.3,25.3
 2004/08/05,11:15,27,85,26.3,25.3
 2004/08/05,11:30,27.1,84,26.5,25.3
 2004/08/05,11:45,27.2,84,26.7,25.3
 2004/08/05,12:00,27.3,82,26.8,25.4
 2004/08/05,12:15,27.4,80,27,25.3
 2004/08/05,12:30,27.5,79,27.1,25.4
 2004/08/05,12:45,27.5,80,27,25.4
 2004/08/05,13:00,27.6,80,27.1,25.4
 2004/08/05,13:15,27.8,78,27.3,25.4
 2004/08/05,13:30,27.8,76,27.4,25.4
 2004/08/05,13:45,28,75,27.6,25.4
 2004/08/05,14:00,28.2,75,27.8,25.4
 2004/08/05,14:15,28.4,75,28,25.5
 2004/08/05,14:30,28.5,73,28,25.5
 2004/08/05,14:45,28.7,72,28.2,25.6
 2004/08/05,15:00,28.6,73,28.2,25.6
 2004/08/05,15:15,28.6,72,28.2,25.7
 2004/08/05,15:30,28.7,73,28.2,25.7
 2004/08/05,15:45,28.8,73,28.5,25.8
 2004/08/05,16:00,28.9,73,28.7,25.9
 2004/08/05,16:15,29.2,75,28.7,25.9
 2004/08/05,16:30,29.2,73,28.8,26
 2004/08/05,16:45,29.2,73,29.1,26
 2004/08/05,17:00,29.2,74,28.9,26.1
 2004/08/05,17:15,29.2,74,28.8,26.1
 2004/08/05,17:30,29.2,74,28.9,26.2
 2004/08/05,17:45,29.2,74,28.8,26.2
 2004/08/05,18:00,29.2,74,28.8,26.3
 2004/08/05,18:15,29.2,74,28.8,26.3
 2004/08/05,18:30,29.1,74,28.7,26.4
 2004/08/05,18:45,29.2,78,28.6,26.4
 2004/08/05,19:00,29,77,28.5,26.4
 2004/08/05,19:15,29,76,28.4,26.4
 2004/08/05,19:30,28.9,75,28.4,26.4
 2004/08/05,19:45,28.8,75,28.3,26.4
 2004/08/05,20:00,28.7,74,28.2,26.4
 2004/08/05,20:15,28.7,75,28.2,26.4
 2004/08/05,20:30,28.6,75,28.1,26.4
 2004/08/05,20:45,28.5,76,28,26.3
 2004/08/05,21:00,28.5,76,27.8,26.3
 2004/08/05,21:15,28.4,75,27.7,26.3
 2004/08/05,21:30,28.5,75,27.5,26.3
 2004/08/05,21:45,28.4,75,27.6,26.2
 2004/08/05,22:00,28.3,75,27.5,26.2
 2004/08/05,22:15,28.3,76,27.5,26.1
 2004/08/05,22:30,28.3,77,27.5,26.1
 2004/08/05,22:45,28.3,77,27.5,26.1
 2004/08/05,23:00,28.3,76,27.4,26
 2004/08/05,23:15,28.2,76,27.1,26
 2004/08/05,23:30,28.1,77,27.2,26
 2004/08/05,23:45,28.1,77,26.9,25.9
 2004/08/06, 0:00,28.3,75,26.9,25.9
 2004/08/06, 0:15,28.3,75,26.9,25.8
 2004/08/06, 0:30,28.2,75,26.7,25.8
 2004/08/06, 0:45,28.1,75,26.9,25.7
 2004/08/06, 1:00,28,75,26.7,25.7
 2004/08/06, 1:15,28,75,26.5,25.6
 2004/08/06, 1:30,27.8,76,26.5,25.6
 2004/08/06, 1:45,27.7,76,26.3,25.5
 2004/08/06, 2:00,27.6,76,26.4,25.4
 2004/08/06, 2:15,27.5,77,26.2,25.4
 2004/08/06, 2:30,27.5,76,26.1,25.3
 2004/08/06, 2:45,27.4,76,25.9,25.3
 2004/08/06, 3:00,27.3,77,25.9,25.2
 2004/08/06, 3:15,27.2,77,26,25.1
 2004/08/06, 3:30,27.1,77,25.9,25.1
 2004/08/06, 3:45,27.1,77,25.7,25
 2004/08/06, 4:00,27,77,25.7,24.9
 2004/08/06, 4:15,27,77,25.5,24.9
 2004/08/06, 4:30,27,78,25.3,24.9
 2004/08/06, 4:45,26.9,78,25.3,24.8
 2004/08/06, 5:00,26.9,78,25.2,24.8
 2004/08/06, 5:15,26.8,78,25.3,24.7
 2004/08/06, 5:30,26.7,78,25.4,24.7
 2004/08/06, 5:45,26.7,78,25.3,24.7
 2004/08/06, 6:00,26.7,78,25.6,24.7
 2004/08/06, 6:15,26.7,79,26.5,24.7
 2004/08/06, 6:30,26.8,78,27.6,24.7
 2004/08/06, 6:45,27,78,27.9,24.8
 2004/08/06, 7:00,27,79,27.7,24.8
 2004/08/06, 7:15,27.1,79,27.4,24.8
 2004/08/06, 7:30,27.2,79,27.5,24.8
 2004/08/06, 7:45,27.3,79,27.6,24.9
 2004/08/06, 8:00,27.5,79,28.2,24.9
 2004/08/06, 8:15,27.8,79,28.6,25
 2004/08/06, 8:30,28,78,28.7,25.1
 2004/08/06, 8:45,28.1,78,28.7,25.1
 2004/08/06, 9:00,28.4,77,29.2,25.2
 2004/08/06, 9:15,28.7,75,29.7,25.3
 2004/08/06, 9:30,29,74,29.8,25.4
 2004/08/06, 9:45,29.3,72,29.8,25.4
 2004/08/06,10:00,29.6,69,30,25.6
 2004/08/06,10:15,29.8,67,29.8,25.7
 2004/08/06,10:30,30,67,29.8,25.8
 2004/08/06,10:45,29.9,69,29.7,25.9
 2004/08/06,11:00,30,68,29.8,26
 2004/08/06,11:15,30.4,64,30.3,26.1
 2004/08/06,11:30,30.7,62,30.5,26.2
 2004/08/06,11:45,30.7,59,30.5,26.3
 2004/08/06,12:00,30.5,58,30.3,26.3
 2004/08/06,12:15,30.5,60,30.3,26.4
 2004/08/06,12:30,30.8,61,30.5,26.5
 2004/08/06,12:45,30.8,60,30.5,26.6
 2004/08/06,13:00,31.1,59,30.8,26.7
 2004/08/06,13:15,31.4,56,30.8,26.8
 2004/08/06,13:30,31.5,56,31.1,26.9
 2004/08/06,13:45,31.6,55,31.2,27
 2004/08/06,14:00,31.8,54,31.4,27.1
 2004/08/06,14:15,31.8,53,31.4,27.1
 2004/08/06,14:30,31.9,53,31.5,27.2
 2004/08/06,14:45,31.8,56,31.4,27.3
 2004/08/06,15:00,31.8,54,31.4,27.3
 2004/08/06,15:15,31.9,55,31.5,27.4
 2004/08/06,15:30,31.9,55,31.4,27.5
 2004/08/06,15:45,32,54,31.8,27.6
 2004/08/06,16:00,31.8,53,31.8,27.7
 2004/08/06,16:15,31.8,54,31.8,27.7
 2004/08/06,16:30,31.9,57,31.7,27.7
 2004/08/06,16:45,31.6,57,31.6,27.7
 2004/08/06,17:00,31.5,58,31.6,27.7
 2004/08/06,17:15,31.4,57,31.5,27.7
 2004/08/06,17:30,31.1,58,31.2,27.7
 2004/08/06,17:45,30.8,58,30.7,27.7
 2004/08/06,18:00,30.8,59,30.6,27.6
 2004/08/06,18:15,30.7,59,30.4,27.6
 2004/08/06,18:30,30.6,60,30.2,27.5
 2004/08/06,18:45,30.6,59,30.1,27.4
 2004/08/06,19:00,30.5,60,29.9,27.4
 2004/08/06,19:15,30.5,61,29.7,27.3
 2004/08/06,19:30,30.4,59,29.9,27.2
 2004/08/06,19:45,30.3,61,29.6,27.2
 2004/08/06,20:00,30.2,61,29.7,27.1
 2004/08/06,20:15,30.2,61,29.6,27.1
 2004/08/06,20:30,30.1,62,29.3,27
 2004/08/06,20:45,29.9,63,29.3,27
 2004/08/06,21:00,29.9,63,29.2,26.9
 2004/08/06,21:15,29.8,64,29.1,26.8
 2004/08/06,21:30,29.7,64,29.1,26.8
 2004/08/06,21:45,29.6,64,28.9,26.7
 2004/08/06,22:00,29.6,65,28.8,26.7
 2004/08/06,22:15,29.4,65,28.7,26.6
 2004/08/06,22:30,29.3,66,28.7,26.6
 2004/08/06,22:45,29.3,66,28.6,26.5
 2004/08/06,23:00,29.3,66,28.5,26.5
 2004/08/06,23:15,29.3,66,28.3,26.4
 2004/08/06,23:30,29.2,67,28.1,26.3
 2004/08/06,23:45,29.1,67,28,26.3
 2004/08/07, 0:00,29.2,68,27.8,26.2
 2004/08/07, 0:15,29.3,67,27.8,26.2
 2004/08/07, 0:30,29.2,67,27.6,26.1
 2004/08/07, 0:45,29.1,68,27.5,26
 2004/08/07, 1:00,29,69,27.4,26
 2004/08/07, 1:15,28.9,69,27.3,25.9
 2004/08/07, 1:30,28.9,69,27.5,25.9
 2004/08/07, 1:45,28.9,69,27.5,25.8
 2004/08/07, 2:00,28.8,69,27.5,25.8
 2004/08/07, 2:15,28.8,70,27.4,25.7
 2004/08/07, 2:30,28.7,70,27.3,25.7
 2004/08/07, 2:45,28.7,70,27.4,25.6
 2004/08/07, 3:00,28.6,70,27.3,25.6
 2004/08/07, 3:15,28.5,70,27.4,25.6
 2004/08/07, 3:30,28.4,70,27.4,25.5
 2004/08/07, 3:45,28.3,71,27.4,25.5
 2004/08/07, 4:00,28.2,71,27.2,25.5
 2004/08/07, 4:15,28.1,72,27.2,25.5
 2004/08/07, 4:30,28,73,27.3,25.4
 2004/08/07, 4:45,28,73,27.2,25.4
 2004/08/07, 5:00,28,73,27.2,25.4
 2004/08/07, 5:15,28,74,27.1,25.4
 2004/08/07, 5:30,27.9,74,27.1,25.3
 2004/08/07, 5:45,27.9,74,26.9,25.3
 2004/08/07, 6:00,28,74,27,25.3
 2004/08/07, 6:15,28,74,27.1,25.2
 2004/08/07, 6:30,27.9,75,27.2,25.2
 2004/08/07, 6:45,27.9,75,27.3,25.3
 2004/08/07, 7:00,27.9,77,27.4,25.3
 2004/08/07, 7:15,27.9,77,27.5,25.3
 2004/08/07, 7:30,28,76,27.8,25.3
 2004/08/07, 7:45,28.2,76,27.8,25.3
 2004/08/07, 8:00,28.2,76,27.9,25.3
 2004/08/07, 8:15,28.2,76,28.1,25.3
 2004/08/07, 8:30,28.3,75,28.5,25.3
 2004/08/07, 8:45,28.4,75,28.6,25.3
 2004/08/07, 9:00,28.4,75,28.6,25.3
 2004/08/07, 9:15,28.4,74,28.5,25.4
 2004/08/07, 9:30,28.4,74,28.4,25.4
 2004/08/07, 9:45,28.6,74,28.6,25.4
 2004/08/07,10:00,28.7,74,28.8,25.4
 2004/08/07,10:15,28.7,73,28.8,25.4
 2004/08/07,10:30,28.9,74,29,25.5
 2004/08/07,10:45,29,76,28.9,25.6
 2004/08/07,11:00,29,69,28.7,25.6
 2004/08/07,11:15,29.1,68,28.8,25.6
 2004/08/07,11:30,29.4,68,28.9,25.6
 2004/08/07,11:45,29.5,67,28.9,25.7
 2004/08/07,12:00,29.8,66,29,25.7
 2004/08/07,12:15,29.9,64,29.1,25.8
 2004/08/07,12:30,29.9,63,29.1,25.8
 2004/08/07,12:45,30.2,63,29.3,25.9
 2004/08/07,13:00,30.4,62,29.4,25.9
 2004/08/07,13:15,30.5,61,29.5,26
 2004/08/07,13:30,30.8,62,29.7,26
 2004/08/07,13:45,31,60,29.8,26.1
 2004/08/07,14:00,31.2,60,30,26.2
 2004/08/07,14:15,31.1,60,30.1,26.3
 2004/08/07,14:30,31.2,60,30.1,26.3
 2004/08/07,14:45,31,63,30.1,26.4
 2004/08/07,15:00,30.9,64,30.1,26.5
 2004/08/07,15:15,30.8,66,30.2,26.5
 2004/08/07,15:30,30.8,67,30.2,26.5
 2004/08/07,15:45,30.7,68,30.2,26.6
 2004/08/07,16:00,30.7,68,30.2,26.6
 2004/08/07,16:15,30.7,67,30.3,26.6
 2004/08/07,16:30,30.7,67,30.3,26.7
 2004/08/07,16:45,30.7,67,30.3,26.7
 2004/08/07,17:00,30.7,68,30.3,26.8
 2004/08/07,17:15,30.7,67,30.3,26.9
 2004/08/07,17:30,30.7,62,30.5,26.9
 2004/08/07,17:45,30.5,61,30.3,26.9
 2004/08/07,18:00,30.4,63,30,26.9
 2004/08/07,18:15,30,66,29.3,26.9
 2004/08/07,18:30,29.5,72,28.5,26.6
 2004/08/07,18:45,29.2,73,28.3,26.5
 2004/08/07,19:00,29.1,73,28,26.3
 2004/08/07,19:15,29,73,28,26.4
 2004/08/07,19:30,28.3,75,27.9,26.1
 2004/08/07,19:45,28.4,76,27.8,26.1